GW5170 Weather Reports


Display with metric or nautical units.
time (UTC)temp
F
wind
direction
speed
MPH
gust
MPH
rain 1hr
in
rain 24hr
in
rain mn
in
humidity
%
barometer
mb
20260510112805 42 339 1.0 1.0 0.00 0.00 0.00 67 1019.1
20260510112305 41 346 1.0 1.0 0.00 0.00 0.00 67 1019.1
20260510111757 41 322 1.0 2.0 0.00 0.00 0.00 68 1019.3
20260510111254 41 342 1.0 2.0 0.00 0.00 0.00 69 1019.0
20260510110753 41 322 1.0 1.0 0.00 0.00 0.00 70 1019.1
20260510110252 41 315 1.0 2.0 0.00 0.00 0.00 70 1018.9
20260510105752 40 327 1.0 1.0 0.00 0.00 0.00 70 1018.9
20260510105246 40 322 2.0 2.0 0.00 0.00 0.00 71 1019.0
20260510104743 40 336 2.0 2.0 0.00 0.00 0.00 72 1018.7
20260510104241 40 336 2.0 2.0 0.00 0.00 0.00 73 1018.7
20260510103737 40 346 2.0 2.0 0.00 0.00 0.00 74 1018.6
20260510103234 40 338 2.0 2.0 0.00 0.00 0.00 74 1018.6
20260510102734 40 340 2.0 2.0 0.00 0.00 0.00 74 1018.4
20260510102230 40 335 2.0 2.0 0.00 0.00 0.00 74 1018.3
20260510101728 40 338 3.0 3.0 0.00 0.00 0.00 75 1018.2
20260510101226 40 337 2.0 2.0 0.00 0.00 0.00 76 1018.3
20260510100721 40 319 2.0 2.0 0.00 0.00 0.00 77 1018.1
20260510100220 39 336 2.0 2.0 0.00 0.00 0.00 81 1018.2
20260510095715 40 346 3.0 3.0 0.00 0.00 0.00 82 1018.3
20260510095211 40 336 0.0 1.0 0.00 0.00 0.00 82 1018.2
20260510094709 40 335 1.0 1.0 0.00 0.00 0.00 81 1018.0
20260510094205 40 336 1.0 1.0 0.00 0.00 0.00 81 1018.0
20260510093700 40 331 0.0 0.0 0.00 0.00 0.00 80 1018.0
20260510093158 41 330 0.0 0.0 0.00 0.00 0.00 80 1018.0
20260510092654 41 330 0.0 0.0 0.00 0.00 0.00 78 1017.8
20260510092150 41 329 0.0 0.0 0.00 0.00 0.00 76 1017.8
20260510091646 42 330 0.0 1.0 0.00 0.00 0.00 74 1017.8
20260510091142 42 336 1.0 1.0 0.00 0.00 0.00 70 1017.8
20260510090639 43 341 1.0 1.0 0.00 0.00 0.00 68 1017.8
20260510090136 43 340 1.0 2.0 0.00 0.00 0.00 67 1017.9
20260510085631 43 335 0.0 0.0 0.00 0.00 0.00 66 1017.7
20260510085126 44 324 0.0 0.0 0.00 0.00 0.00 65 1017.8
20260510084623 44 319 0.0 0.0 0.00 0.00 0.00 64 1017.8
20260510084121 44 318 0.0 0.0 0.00 0.00 0.00 62 1017.8
20260510083616 44 320 0.0 0.0 0.00 0.00 0.00 62 1017.7
20260510083113 45 323 0.0 0.0 0.00 0.00 0.00 62 1017.3
20260510082609 45 319 1.0 1.0 0.00 0.00 0.00 62 1017.1
20260510082105 45 316 1.0 1.0 0.00 0.00 0.00 62 1017.2
20260510081600 45 316 2.0 2.0 0.00 0.00 0.00 62 1016.9
20260510081056 45 313 1.0 1.0 0.00 0.00 0.00 61 1016.9
20260510080555 46 320 2.0 2.0 0.00 0.00 0.00 60 1016.8
20260510080052 46 321 1.0 1.0 0.00 0.00 0.00 59 1016.7
20260510075550 46 323 1.0 2.0 0.00 0.00 0.00 60 1016.8
20260510075046 46 323 2.0 2.0 0.00 0.00 0.00 60 1016.7
20260510074544 45 315 2.0 2.0 0.00 0.00 0.00 60 1016.8
20260510074039 46 0 0.0 0.0 0.00 0.00 0.00 60 1016.4
20260510073535 46 335 2.0 3.0 0.00 0.00 0.00 59 1016.3
20260510073033 46 320 2.0 2.0 0.00 0.00 0.00 60 1016.5
20260510072529 46 333 2.0 3.0 0.00 0.00 0.00 59 1016.5
20260510072025 46 342 2.0 2.0 0.00 0.00 0.00 60 1016.3
20260510071521 46 331 2.0 2.0 0.00 0.00 0.00 59 1016.3
20260510071020 46 336 2.0 3.0 0.00 0.00 0.00 58 1016.3
20260510070516 47 350 3.0 3.0 0.00 0.00 0.00 58 1016.2
20260510070013 47 331 3.0 3.0 0.00 0.00 0.00 57 1016.2
20260510065509 47 319 2.0 2.0 0.00 0.00 0.00 56 1016.4
20260510065005 47 330 3.0 3.0 0.00 0.00 0.00 57 1016.2
20260510064502 47 325 3.0 3.0 0.00 0.00 0.00 56 1016.0
20260510063959 47 310 3.0 3.0 0.00 0.00 0.00 56 1016.2
20260510063455 47 337 1.0 1.0 0.00 0.00 0.00 57 1016.1
20260510062953 47 342 2.0 2.0 0.00 0.00 0.00 56 1015.9
20260510062448 47 353 2.0 2.0 0.00 0.00 0.00 56 1015.9
20260510061943 48 334 3.0 3.0 0.00 0.00 0.00 56 1015.9
20260510061441 48 342 2.0 2.0 0.00 0.00 0.00 56 1015.8
20260510060937 48 332 2.0 3.0 0.00 0.00 0.00 56 1015.8
20260510060434 48 355 2.0 3.0 0.00 0.00 0.00 56 1015.7
20260510055930 48 346 1.0 1.0 0.00 0.00 0.00 57 1015.7
20260510055426 48 343 2.0 2.0 0.00 0.00 0.00 55 1015.6
20260510054924 48 340 3.0 4.0 0.00 0.00 0.00 53 1015.7
20260510054419 49 321 0.0 1.0 0.00 0.00 0.00 53 1015.7
20260510053914 49 323 2.0 2.0 0.00 0.00 0.00 52 1015.6
20260510053411 50 306 2.0 2.0 0.00 0.00 0.00 51 1015.6
20260510052907 50 345 2.0 2.0 0.00 0.00 0.00 51 1015.5
20260510052403 50 316 1.0 1.0 0.00 0.00 0.00 52 1015.3
20260510051859 50 334 1.0 1.0 0.00 0.00 0.00 52 1015.1
20260510051355 50 347 2.0 2.0 0.00 0.00 0.00 51 1015.0
20260510050852 50 343 1.0 2.0 0.00 0.00 0.00 51 1015.0
20260510050349 50 334 2.0 2.0 0.00 0.00 0.00 50 1014.9
20260510045846 51 322 2.0 3.0 0.00 0.00 0.00 49 1014.7
20260510045343 51 346 2.0 2.0 0.00 0.00 0.00 47 1014.8
20260510044840 52 323 1.0 2.0 0.00 0.00 0.00 47 1014.7
20260510044337 52 322 2.0 2.0 0.00 0.00 0.00 46 1014.7
20260510043833 52 341 2.0 2.0 0.00 0.00 0.00 45 1014.6
20260510043329 53 328 2.0 2.0 0.00 0.00 0.00 45 1014.7
20260510042827 53 331 2.0 3.0 0.00 0.00 0.00 44 1014.5
20260510042323 53 324 2.0 3.0 0.00 0.00 0.00 44 1014.4
20260510041819 53 322 3.0 3.0 0.00 0.00 0.00 44 1014.4
20260510041317 53 338 3.0 3.0 0.00 0.00 0.00 43 1014.3
20260510040814 54 324 2.0 2.0 0.00 0.00 0.00 43 1014.2
20260510040310 54 330 2.0 2.0 0.00 0.00 0.00 42 1014.2
20260510035806 54 330 4.0 4.0 0.00 0.00 0.00 42 1014.1
20260510035306 55 340 3.0 3.0 0.00 0.00 0.00 42 1013.9
20260510034758 55 356 4.0 4.0 0.00 0.00 0.00 41 1013.7
20260510034256 55 339 4.0 4.0 0.00 0.00 0.00 41 1013.7
20260510033752 55 327 3.0 4.0 0.00 0.00 0.00 41 1013.7
20260510033250 55 307 4.0 4.0 0.00 0.00 0.00 41 1013.5
20260510032746 55 354 3.0 3.0 0.00 0.00 0.00 41 1013.5
20260510032242 56 341 2.0 2.0 0.00 0.00 0.00 41 1013.4
20260510031737 56 332 2.0 2.0 0.00 0.00 0.00 40 1013.3
20260510031233 56 340 2.0 3.0 0.00 0.00 0.00 40 1013.1
20260510030733 57 324 3.0 3.0 0.00 0.00 0.00 40 1013.3
20260510030231 57 352 3.0 3.0 0.00 0.00 0.00 39 1013.0
20260510025728 57 319 4.0 4.0 0.00 0.00 0.00 40 1012.9
20260510025225 57 316 3.0 4.0 0.00 0.00 0.00 40 1013.0
20260510024722 58 313 3.0 3.0 0.00 0.00 0.00 39 1012.8
20260510024219 58 319 3.0 3.0 0.00 0.00 0.00 39 1012.8
20260510023714 59 330 4.0 4.0 0.00 0.00 0.00 38 1012.7
20260510023211 59 314 4.0 4.0 0.00 0.00 0.00 38 1012.5
20260510022707 59 284 3.0 4.0 0.00 0.00 0.00 38 1012.6
20260510022202 59 338 3.0 3.0 0.00 0.00 0.00 38 1012.4
20260510021657 59 337 4.0 6.0 0.00 0.00 0.00 37 1012.3
20260510021155 60 354 4.0 4.0 0.00 0.00 0.00 38 1012.3
20260510020650 60 336 3.0 3.0 0.00 0.00 0.00 38 1012.1
20260510020145 60 331 3.0 3.0 0.00 0.00 0.00 38 1011.8
20260510015641 60 320 2.0 3.0 0.00 0.00 0.00 38 1011.7
20260510015138 61 341 4.0 4.0 0.00 0.00 0.00 37 1011.7
20260510014638 61 337 4.0 4.0 0.00 0.00 0.00 37 1011.5
20260510014136 61 327 5.0 6.0 0.00 0.00 0.00 36 1011.4
20260510013631 62 311 4.0 4.0 0.00 0.00 0.00 36 1011.2
20260510013127 62 348 4.0 4.0 0.00 0.00 0.00 36 1011.2
20260510012626 62 309 3.0 3.0 0.00 0.00 0.00 35 1011.1
20260510012123 63 330 4.0 4.0 0.00 0.00 0.00 35 1010.8
20260510011622 63 330 5.0 7.0 0.00 0.00 0.00 35 1010.6
20260510011118 63 337 5.0 6.0 0.00 0.00 0.00 34 1010.5
20260510010615 64 330 4.0 4.0 0.00 0.00 0.00 34 1010.7
20260510010112 64 319 4.0 4.0 0.00 0.00 0.00 34 1010.4
20260510005607 64 326 4.0 6.0 0.00 0.00 0.00 33 1010.4
20260510005105 64 295 8.0 9.0 0.00 0.00 0.00 33 1010.4
20260510004603 65 310 6.0 7.0 0.00 0.00 0.00 33 1010.2
20260510004101 65 328 9.0 11.0 0.00 0.00 0.00 32 1010.4
20260510003557 65 285 6.0 9.0 0.00 0.00 0.00 32 1010.1
20260510003053 66 331 4.0 9.0 0.00 0.00 0.00 32 1010.0
20260510002548 66 301 9.0 10.0 0.00 0.00 0.00 32 1009.9
20260510002046 66 19 6.0 7.0 0.00 0.00 0.00 32 1009.8
20260510001542 67 314 6.0 8.0 0.00 0.00 0.00 31 1009.7
20260510001041 67 305 6.0 8.0 0.00 0.00 0.00 31 1009.6
20260510000537 67 331 11.0 15.0 0.00 0.00 0.00 31 1009.7
20260510000034 67 350 7.0 9.0 0.00 0.00 0.00 31 1009.6
20260509235530 68 329 9.0 13.0 0.00 0.00 0.00 31 1009.5
20260509235027 68 321 9.0 13.0 0.00 0.00 0.00 32 1009.4
20260509234523 68 5 9.0 10.0 0.00 0.00 0.00 32 1009.3
20260509234021 68 345 12.0 14.0 0.00 0.00 0.00 32 1009.2
20260509233518 68 342 8.0 10.0 0.00 0.00 0.00 32 1009.1
20260509233016 68 297 9.0 11.0 0.00 0.00 0.00 32 1009.2
20260509232512 69 230 6.0 8.0 0.00 0.00 0.00 33 1009.1
20260509232009 69 334 6.0 7.0 0.00 0.00 0.00 33 1009.0
20260509231505 69 328 11.0 15.0 0.00 0.00 0.00 31 1008.8
20260509231003 70 326 9.0 15.0 0.00 0.00 0.00 31 1008.8
20260509230459 69 329 7.0 8.0 0.00 0.00 0.00 32 1008.6
20260509225956 70 335 13.0 16.0 0.00 0.00 0.00 30 1008.5
20260509225452 70 284 12.0 15.0 0.00 0.00 0.00 30 1008.3
20260509224948 70 333 13.0 15.0 0.00 0.00 0.00 29 1008.5
20260509224443 71 288 10.0 14.0 0.00 0.00 0.00 30 1008.2
20260509223941 71 270 10.0 14.0 0.00 0.00 0.00 30 1008.2
20260509223437 71 203 6.0 10.0 0.00 0.00 0.00 30 1008.1
20260509222934 71 304 9.0 10.0 0.00 0.00 0.00 30 1008.0
20260509222429 71 309 11.0 15.0 0.00 0.00 0.00 29 1007.9
20260509221926 71 340 11.0 15.0 0.00 0.00 0.00 30 1007.9
20260509221423 71 319 9.0 13.0 0.00 0.00 0.00 30 1007.8
20260509220918 71 15 5.0 7.0 0.00 0.00 0.00 30 1007.6
20260509220415 71 289 11.0 15.0 0.00 0.00 0.00 29 1007.8
20260509215911 72 325 15.0 23.0 0.00 0.00 0.00 29 1007.7
20260509215406 72 316 9.0 14.0 0.00 0.00 0.00 30 1007.5
20260509214904 72 342 11.0 14.0 0.00 0.00 0.00 31 1007.6
20260509214401 72 310 9.0 11.0 0.00 0.00 0.00 31 1007.4
20260509213858 72 326 7.0 9.0 0.00 0.00 0.00 31 1007.6
20260509213359 72 304 9.0 11.0 0.00 0.00 0.00 31 1007.4
20260509212857 72 298 11.0 15.0 0.00 0.00 0.00 30 1007.4
20260509212354 72 285 10.0 13.0 0.00 0.00 0.00 29 1007.1
20260509211850 73 312 12.0 18.0 0.00 0.00 0.00 30 1007.3
20260509211341 72 309 10.0 11.0 0.00 0.00 0.00 31 1007.2
20260509210837 72 307 9.0 11.0 0.00 0.00 0.00 31 1007.2
20260509210335 72 348 8.0 10.0 0.00 0.00 0.00 33 1007.3
20260509205834 73 292 8.0 10.0 0.00 0.00 0.00 33 1007.3
20260509205329 72 333 7.0 10.0 0.00 0.00 0.00 34 1007.2
20260509204826 73 231 6.0 8.0 0.00 0.00 0.00 34 1007.1
20260509204322 72 330 5.0 7.0 0.00 0.00 0.00 34 1007.2
20260509203819 73 248 13.0 16.0 0.00 0.00 0.00 34 1007.3
20260509203315 72 311 5.0 7.0 0.00 0.00 0.00 37 1007.1
20260509202811 72 270 12.0 16.0 0.00 0.00 0.00 38 1007.2
20260509202308 72 307 11.0 17.0 0.00 0.00 0.00 38 1007.1
20260509201806 72 275 4.0 8.0 0.00 0.00 0.00 38 1007.3
20260509201259 71 304 8.0 11.0 0.00 0.00 0.00 39 1007.1
20260509200754 70 304 8.0 11.0 0.00 0.00 0.00 40 1007.3
20260509200250 70 277 9.0 11.0 0.00 0.00 0.00 40 1007.2
20260509195747 70 305 8.0 11.0 0.00 0.00 0.00 40 1007.3
20260509195242 70 246 9.0 11.0 0.00 0.00 0.00 40 1007.2
20260509194741 70 289 11.0 14.0 0.00 0.00 0.00 40 1007.0
20260509194238 70 9 6.0 8.0 0.00 0.00 0.00 39 1007.2
20260509193735 71 303 11.0 18.0 0.00 0.00 0.00 40 1007.3
20260509193235 70 328 9.0 11.0 0.00 0.00 0.00 40 1007.2
20260509192731 70 300 18.0 22.0 0.00 0.00 0.00 39 1007.2
20260509192226 70 73 8.0 15.0 0.00 0.00 0.00 39 1007.4
20260509191722 71 294 10.0 16.0 0.00 0.00 0.00 40 1006.9
20260509191219 71 297 10.0 13.0 0.00 0.00 0.00 39 1007.1
20260509190715 70 249 8.0 13.0 0.00 0.00 0.00 40 1007.1
20260509190212 70 303 9.0 18.0 0.00 0.00 0.00 40 1007.0
20260509185710 70 324 7.0 10.0 0.00 0.00 0.00 40 1007.0
20260509185205 72 297 7.0 13.0 0.00 0.00 0.00 39 1006.9
20260509184703 71 272 10.0 13.0 0.00 0.00 0.00 38 1006.7
20260509184200 71 280 9.0 11.0 0.00 0.00 0.00 38 1006.8
20260509183656 71 253 7.0 10.0 0.00 0.00 0.00 37 1006.8
20260509183151 71 322 6.0 8.0 0.00 0.00 0.00 37 1006.8
20260509182647 69 286 8.0 11.0 0.00 0.00 0.00 36 1006.8
20260509182145 69 278 10.0 13.0 0.00 0.00 0.00 36 1006.7
20260509181643 69 325 7.0 9.0 0.00 0.00 0.00 36 1006.5
20260509181140 69 5 10.0 11.0 0.00 0.00 0.00 34 1006.6
20260509180637 70 317 10.0 14.0 0.00 0.00 0.00 33 1006.5
20260509180133 69 291 7.0 8.0 0.00 0.00 0.00 33 1006.6
20260509175629 69 314 14.0 18.0 0.00 0.00 0.00 33 1006.5
20260509175126 69 303 5.0 9.0 0.00 0.00 0.00 32 1006.7
20260509174622 69 317 8.0 13.0 0.00 0.00 0.00 33 1006.5
20260509174117 69 310 12.0 14.0 0.00 0.00 0.00 33 1006.7
20260509173613 70 4 8.0 10.0 0.00 0.00 0.00 32 1006.6
20260509173104 70 4 12.0 15.0 0.00 0.00 0.00 32 1006.8
20260509172601 70 305 8.0 11.0 0.00 0.00 0.00 31 1006.9
20260509172057 70 309 13.0 14.0 0.00 0.00 0.00 31 1006.7
20260509171553 70 303 14.0 15.0 0.00 0.00 0.00 31 1006.6
20260509171049 71 317 10.0 13.0 0.00 0.00 0.00 30 1006.6
20260509170545 71 305 16.0 25.0 0.00 0.00 0.00 29 1006.7
20260509170041 73 316 12.0 18.0 0.00 0.00 0.00 29 1006.6
20260509165540 73 306 5.0 7.0 0.00 0.00 0.00 28 1006.5
20260509165035 71 290 6.0 8.0 0.00 0.00 0.00 28 1006.5
20260509164532 71 9 8.0 11.0 0.00 0.00 0.00 29 1006.5
20260509164027 71 303 7.0 8.0 0.00 0.00 0.00 30 1006.6
20260509163526 71 310 4.0 7.0 0.00 0.00 0.00 30 1006.5
20260509163026 70 301 6.0 8.0 0.00 0.00 0.00 30 1006.4
20260509162524 70 289 4.0 6.0 0.00 0.00 0.00 30 1006.5
20260509162019 71 340 7.0 14.0 0.00 0.00 0.00 30 1006.4
20260509161516 72 305 10.0 13.0 0.00 0.00 0.00 31 1006.4
20260509161016 71 323 6.0 7.0 0.00 0.00 0.00 30 1006.5
20260509160512 70 308 12.0 14.0 0.00 0.00 0.00 31 1006.6
20260509160008 70 338 7.0 10.0 0.00 0.00 0.00 31 1006.8
20260509155504 70 288 8.0 11.0 0.00 0.00 0.00 30 1006.6
20260509155000 69 304 14.0 17.0 0.00 0.00 0.00 32 1006.5
20260509154457 69 323 13.0 16.0 0.00 0.00 0.00 32 1006.4
20260509153954 69 296 8.0 13.0 0.00 0.00 0.00 33 1006.4
20260509153451 70 300 10.0 15.0 0.00 0.00 0.00 32 1006.3
20260509152948 71 299 7.0 11.0 0.00 0.00 0.00 34 1006.5
20260509152443 70 312 4.0 6.0 0.00 0.00 0.00 34 1006.3
20260509151941 70 283 7.0 8.0 0.00 0.00 0.00 34 1006.5
20260509151437 70 248 6.0 7.0 0.00 0.00 0.00 35 1006.5
20260509150935 69 341 4.0 4.0 0.00 0.00 0.00 35 1006.4
20260509150432 69 271 4.0 6.0 0.00 0.00 0.00 38 1006.4
20260509145931 69 302 5.0 7.0 0.00 0.00 0.00 37 1006.3
20260509145431 68 287 4.0 4.0 0.00 0.00 0.00 37 1006.4
20260509144926 68 331 6.0 8.0 0.00 0.00 0.00 39 1006.1
20260509144423 67 294 5.0 6.0 0.00 0.00 0.00 41 1006.2
20260509143920 67 298 4.0 4.0 0.00 0.00 0.00 41 1006.3
20260509143418 66 347 4.0 6.0 0.00 0.00 0.00 42 1006.2
20260509142914 66 248 5.0 7.0 0.00 0.00 0.00 43 1006.4
20260509142411 67 281 5.0 7.0 0.00 0.00 0.00 42 1006.2
20260509141906 66 314 1.0 2.0 0.00 0.00 0.00 47 1006.2
20260509141403 65 314 1.0 1.0 0.00 0.00 0.00 49 1006.2
20260509140900 65 248 2.0 3.0 0.00 0.00 0.00 49 1006.2
20260509140357 64 337 1.0 1.0 0.00 0.00 0.00 53 1006.3
20260509135855 63 318 1.0 1.0 0.00 0.00 0.00 56 1006.3
20260509135352 63 357 2.0 2.0 0.00 0.00 0.00 56 1006.3
20260509134849 62 273 3.0 4.0 0.00 0.00 0.00 57 1006.1
20260509134346 61 342 3.0 4.0 0.00 0.00 0.00 62 1006.2
20260509133843 61 306 1.0 2.0 0.00 0.00 0.00 63 1005.9
20260509133340 60 338 1.0 1.0 0.00 0.00 0.00 65 1005.9
20260509132839 59 303 2.0 3.0 0.00 0.00 0.00 67 1005.9
20260509132337 59 253 4.0 7.0 0.00 0.00 0.00 68 1005.7
20260509131833 59 350 3.0 4.0 0.00 0.00 0.00 68 1005.7
20260509131330 58 295 3.0 3.0 0.00 0.00 0.00 71 1005.5
20260509130826 57 273 5.0 6.0 0.00 0.00 0.00 72 1005.6
20260509130322 57 274 5.0 6.0 0.00 0.00 0.00 74 1005.7
20260509125819 57 295 2.0 2.0 0.00 0.00 0.00 75 1005.7
20260509125315 56 229 4.0 6.0 0.00 0.00 0.00 77 1005.6
20260509124812 55 291 2.0 2.0 0.00 0.00 0.00 79 1005.8
20260509124308 55 274 2.0 2.0 0.00 0.00 0.00 80 1005.7
20260509123807 54 286 2.0 2.0 0.00 0.00 0.00 81 1005.7
20260509123304 54 295 2.0 2.0 0.00 0.00 0.00 83 1005.7
20260509122759 53 264 2.0 3.0 0.00 0.00 0.00 84 1005.7
20260509122257 53 269 1.0 2.0 0.00 0.00 0.00 84 1005.7
20260509121754 52 244 2.0 2.0 0.00 0.00 0.00 84 1005.4
20260509121251 52 283 1.0 1.0 0.00 0.00 0.00 85 1005.3
20260509120749 52 293 1.0 1.0 0.00 0.00 0.00 86 1005.4
20260509120246 51 268 2.0 2.0 0.00 0.00 0.00 86 1005.4
20260509115744 51 288 1.0 1.0 0.00 0.00 0.00 88 1005.4
20260509115241 50 278 2.0 2.0 0.00 0.00 0.00 88 1005.5
20260509114739 50 313 1.0 2.0 0.00 0.00 0.00 89 1005.4
20260509114238 50 230 2.0 3.0 0.00 0.00 0.00 90 1005.5
20260509113736 50 291 1.0 1.0 0.00 0.00 0.00 90 1005.4
20260509113233 50 220 2.0 2.0 0.00 0.00 0.00 90 1005.3